Weather in Port Vila

Vanuatu     17°43′49″S   168°19′11″E
temp.,
°C
wind,
m/s
gust,
m/s
humid.,
%
clouds,
%
prec.,
mm/h
press.,
hPa
HPBL,
m
11 may, tue
tue1123:00+25e6108499 0.1 1013737
02:00+25e71085100 0.0 1012770
05:00+25e7108486 0.1 1012786
08:00+26e71080100 0.1 1014908
11:00+27ese897453 0.3 10131040
14:00+27ese797458 0.3 10111001
17:00+26ese798393 0.4 1012761
20:00+25ese698599 0.2 1014681
12 may, wed
wed1223:00+25e698598 0.4 1013675
02:00+25e71086100 0.1 1012703
05:00+25e7108539 0.1 1012728
08:00+26e7108034 0.1 1014895
11:00+27e8107599 0.3 10131039
14:00+27e81077100 0.3 1011977
17:00+26e7118468 0.6 1012854
20:00+25e7118522 0.3 1013789
13 may, thu
thu1323:00+25e71186100 0.4 1013765
02:00+25e81186100 0.2 1012773
05:00+25e81184100 0.3 1011822
08:00+26e71082100 0.2 1013996
11:00+27e7975100 0.4 10121010
14:00+24ene6987100 3.2 1010590
17:00+24ene4889100 5.2 1011469
20:00+24ne3688100 2.0 1012268
14 may, fri
fri1423:00+24ene3688100 3.3 1012337
02:00+23ese4692100 5.3 1011316
05:00+23e6993100 11.9 1011640
08:00+22e71191100 3.8 1012662
11:00+23e51093100 9.0 1012689
14:00+24e71188100 1.6 1009817
17:00+24e71182100 1.7 1010789
20:00+24e698964 0.2 1011559
15 may, sat
sat1523:00+24e7108995 0.7 1012684
02:00+24ene6108576 0.9 1011615
05:00+24e61086100 1.0 1011622
08:00+25e7108023 0.0 1012761
11:00+26ene688226 1.4 1012771
14:00+27ene677813 1.4 1010886
17:00+25ene57855 2.7 1010524
20:00+24ene59894 0.8 1012485